Location: Gloden
(48.4833°N, 15.3167°E)
Time: 22:30:16
(UTC+00:00)

BUGSAT 1 - Visible Passes

Search period start: 05 May 2021 00:00
Search period end: 15 May 2021 00:00
Orbit: 559 x 601 km, 98.1° (Epoch: 05 May)

Date Brightness Start Highest point End Pass type
(mag) Time Alt. Az. Time Alt. Az. Time Alt. Az.
05 May ? 02:17:54 10° NE 02:20:39 17° E 02:23:25 10° SE visible
06 May ? 02:22:40 10° NE 02:25:41 19° E 02:28:40 10° SE visible
07 May ? 02:27:28 10° NE 02:30:41 21° E 02:33:52 10° SE visible
08 May ? 02:32:17 10° NE 02:35:41 23° E 02:39:02 10° SSE visible
09 May ? 02:37:08 10° NE 02:40:42 25° E 02:44:12 10° SSE visible
10 May ? 02:42:00 10° NE 02:45:40 28° E 02:49:19 10° SSE visible
11 May ? 02:46:52 10° NNE 02:50:41 31° E 02:54:26 10° SSE visible
